Hayward, WI

5:05 PM CST on November 15, 2019 (GMT -0600)
Sawyer County

Weather History for KHYR - September, 2019

Change the Weather History Date:

Sunday, September 22, 2019

  Actual Average Record
Temperature  
Mean Temperature 60 °F -  
Max Temperature 68 °F 58 °F 84 °F (2017)
Min Temperature 55 °F 44 °F 25 °F (1998)
Degree Days  
Heating Degree Days 4    
Growing Degree Days 10 (Base 50)    
Moisture  
Dew Point 55 °F    
Average Humidity 80    
Maximum Humidity 96    
Minimum Humidity 57    
Precipitation  
Precipitation 0.00 in - - ()
Sea Level Pressure  
Sea Level Pressure 29.82 in    
Wind  
Wind Speed 4 mph (SW)    
Max Wind Speed 8 mph    
Max Gust Speed -    
Visibility 9 miles    
Events      
Averages and records for this station are not official NWS values.
T = Trace of Precipitation, MM = Missing Value Source: NWS Daily Summary

Daily Weather History Graph

Daily Weather History Graph

Search for Another Location

Airport or City:

Astronomy

Sep. 22, 2019 Rise Set
Actual Time 6:52 AM CDT 7:03 PM CDT
Civil Twilight 6:22 AM CDT 7:33 PM CDT
Nautical Twilight 5:47 AM CDT 8:08 PM CDT
Astronomical Twilight 5:11 AM CDT 8:44 PM CDT
Moon No Moon Rise 3:20 PM CDT (9/22)
Length of Visible Light 13h 10m
Length of Day
12h 11m
Last Quarter, 44% of the Moon is Illuminated
Sep 22
Last Quarter
Sep 28
New
Oct 5
First Quarter
Oct 13
Full
Oct 21
Last Quarter

Hourly Weather History & Observations

Time (CDT) Temp. Dew Point Humidity Pressure Visibility Wind Dir Wind Speed Gust Speed Precip Events Conditions
12:53 AM 62.1 °F 61.0 °F 96% 29.79 in 6.0 mi Calm Calm - N/A   Clear
1:02 AM 62.1 °F 61.0 °F 96% 29.79 in 1.8 mi SSW 3.5 mph - N/A   Clear
1:06 AM 62.1 °F 61.0 °F 96% 29.80 in 0.8 mi SSW 3.5 mph - N/A   Clear
1:27 AM 62.1 °F 61.0 °F 96% 29.80 in 1.2 mi SSW 5.8 mph - N/A   Clear
1:31 AM 64.0 °F 62.1 °F 93% 29.80 in 3.0 mi SSW 8.1 mph - N/A   Clear
1:53 AM 64.9 °F 63.0 °F 93% 29.79 in 10.0 mi SSW 5.8 mph - N/A   Clear
2:53 AM 64.9 °F 62.1 °F 90% 29.79 in 10.0 mi SSW 5.8 mph - N/A   Clear
3:53 AM 64.0 °F 61.0 °F 90% 29.78 in 10.0 mi SW 6.9 mph - N/A   Clear
4:53 AM 62.1 °F 60.1 °F 93% 29.80 in 10.0 mi SW 4.6 mph - N/A   Clear
5:14 AM 62.1 °F 59.0 °F 90% 29.81 in 10.0 mi SW 4.6 mph - N/A   Mostly Cloudy
5:27 AM 62.1 °F 59.0 °F 90% 29.81 in 10.0 mi WSW 3.5 mph - N/A   Mostly Cloudy
5:45 AM 61.0 °F 59.0 °F 93% 29.81 in 10.0 mi SSW 5.8 mph - N/A   Mostly Cloudy
5:53 AM 61.0 °F 59.0 °F 93% 29.81 in 9.0 mi SSW 4.6 mph - N/A   Mostly Cloudy
6:53 AM 61.0 °F 59.0 °F 93% 29.82 in 7.0 mi Calm Calm - N/A   Partly Cloudy
7:53 AM 60.1 °F 57.0 °F 90% 29.82 in 10.0 mi Calm Calm - N/A   Clear
8:53 AM 61.0 °F 57.9 °F 90% 29.82 in 10.0 mi Variable 4.6 mph - N/A   Clear
9:53 AM 62.1 °F 55.9 °F 80% 29.83 in 10.0 mi Variable 3.5 mph - N/A   Mostly Cloudy
10:43 AM 62.1 °F 55.0 °F 78% 29.84 in 10.0 mi North - - N/A   Mostly Cloudy
10:50 AM 62.6 °F 53.6 °F 72% 29.84 in 10.0 mi WNW 5.8 mph - N/A   Mostly Cloudy
10:53 AM 62.1 °F 53.1 °F 72% 29.84 in 10.0 mi Variable 4.6 mph - N/A   Mostly Cloudy
11:03 AM 62.1 °F 52.0 °F 70% 29.85 in 10.0 mi West 5.8 mph - N/A   Partly Cloudy
11:46 AM 63.0 °F 53.1 °F 70% 29.86 in 10.0 mi Variable 5.8 mph - N/A   Mostly Cloudy
11:53 AM 63.0 °F 53.1 °F 70% 29.85 in 10.0 mi Variable 4.6 mph - N/A   Scattered Clouds
12:53 PM 63.0 °F 51.1 °F 65% 29.83 in 10.0 mi Variable 5.8 mph - N/A   Clear
1:33 PM 64.0 °F 51.1 °F 63% 29.82 in 10.0 mi Variable 5.8 mph - N/A   Mostly Cloudy
1:44 PM 64.0 °F 52.0 °F 65% 29.81 in 10.0 mi Calm Calm - N/A   Scattered Clouds
1:53 PM 64.9 °F 51.1 °F 61% 29.81 in 10.0 mi Variable 4.6 mph - N/A   Scattered Clouds
2:24 PM 66.0 °F 52.0 °F 60% 29.79 in 10.0 mi NW 8.1 mph - N/A   Mostly Cloudy
2:35 PM 66.0 °F 51.1 °F 59% 29.78 in 10.0 mi Variable 3.5 mph - N/A   Scattered Clouds
2:53 PM 66.9 °F 51.1 °F 57% 29.78 in 10.0 mi Variable 3.5 mph - N/A   Partly Cloudy
3:53 PM 66.0 °F 52.0 °F 60% 29.82 in 10.0 mi Variable 6.9 mph - N/A   Mostly Cloudy
4:53 PM 64.0 °F 51.1 °F 63% 29.83 in 10.0 mi NW 6.9 mph - N/A   Mostly Cloudy
5:53 PM 60.1 °F 50.0 °F 69% 29.86 in 10.0 mi Calm Calm - N/A   Mostly Cloudy
6:53 PM 59.0 °F 50.0 °F 72% 29.86 in 10.0 mi Calm Calm - N/A   Overcast
7:53 PM 57.9 °F 51.1 °F 78% 29.86 in 10.0 mi Calm Calm - 0.00 in   Overcast
8:53 PM 57.0 °F 52.0 °F 83% 29.88 in 10.0 mi Calm Calm - 0.00 in   Overcast
9:53 PM 55.9 °F 52.0 °F 87% 29.88 in 10.0 mi Calm Calm - N/A   Mostly Cloudy
10:53 PM 55.9 °F 52.0 °F 87% 29.89 in 10.0 mi SW 4.6 mph - N/A   Overcast
11:53 PM 55.9 °F 52.0 °F 87% 29.90 in 10.0 mi SW 5.8 mph - N/A   Overcast